Track STARLINK-3998 now! 10-day predictions STARLINK-3998 is classified as:
1 52610U 22052N 22224.83335648 -.00003878 00000-0 -22558-3 0 9990 2 52610 53.2151 21.8447 0001547 62.5180 351.4394 15.08853987 14163